{"data":{"norad_id":62511,"epoch":"2026-05-24T21:25:48.795168Z","epoch_age_seconds":84497,"freshness":"FRESH","line1":"1 62511U 25004A   26144.89292587  .00162671  00000+0  12443-2 0  9991","line2":"2 62511  43.0018 331.3740 0002655 258.9316 101.1253 15.70881607 80112","mean_motion":15.70881607,"eccentricity":0.0002655,"inclination_deg":43.0018,"raan_deg":331.374,"arg_perigee_deg":258.9316,"mean_anomaly_deg":101.1253,"bstar":0.0012443,"rev_number":8011,"period_min":91.668270452924,"perigee_km":354.58813036088,"apogee_km":358.16415684013,"semimajor_km":6734.5131436005,"source":"CELESTRAK","updated_at":"2026-05-25T13:38:19.701503Z"}}